This is the latest recevied weather packets stored in our database for station/object SP8PUB-10. If no packets are shown the sender has not sent any weather packets the latest 10 day(s).
| Time | Temp. | Humidity | Pressure | Rain* | Wind** | Luminosity | Snow |
|---|---|---|---|---|---|---|---|
| 1777742425 | 17.78° C | 49% | 1022.1 hPa | - | - | - | - |
| 1777741525 | 18.33° C | 48% | 1022 hPa | - | - | - | - |
| 1777740624 | 18.89° C | 47% | 1022.1 hPa | - | - | - | - |
| 1777739724 | 18.89° C | 47% | 1022 hPa | - | - | - | - |
| 1777738824 | 19.44° C | 47% | 1022.2 hPa | - | - | - | - |
| 1777737924 | 19.44° C | 46% | 1022.4 hPa | - | - | - | - |
| 1777737024 | 20° C | 46% | 1022.4 hPa | - | - | - | - |
| 1777736124 | 20.56° C | 46% | 1022.7 hPa | - | - | - | - |
| 1777735224 | 20.56° C | 46% | 1022.7 hPa | - | - | - | - |
| 1777734324 | 20.56° C | 46% | 1022.9 hPa | - | - | - | - |
| 1777733424 | 20.56° C | 46% | 1023.1 hPa | - | - | - | - |
| 1777732524 | 20.56° C | 46% | 1023.2 hPa | - | - | - | - |
| 1777731623 | 20.56° C | 47% | 1023.3 hPa | - | - | - | - |
| 1777730723 | 20.56° C | 46% | 1023.5 hPa | - | - | - | - |
| 1777729823 | 20° C | 46% | 1023.7 hPa | - | - | - | - |
| 1777728923 | 20° C | 46% | 1023.8 hPa | - | - | - | - |
| 1777728023 | 19.44° C | 46% | 1024 hPa | - | - | - | - |
| 1777727123 | 20° C | 46% | 1024.1 hPa | - | - | - | - |
| 1777726223 | 19.44° C | 47% | 1024.5 hPa | - | - | - | - |
| 1777725323 | 19.44° C | 46% | 1024.7 hPa | - | - | - | - |
| 1777724423 | 19.44° C | 46% | 1024.9 hPa | - | - | - | - |
| 1777723522 | 20° C | 46% | 1025.1 hPa | - | - | - | - |
| 1777722622 | 19.44° C | 47% | 1025.2 hPa | - | - | - | - |
| 1777721722 | 20° C | 47% | 1025.4 hPa | - | - | - | - |
| 1777720821 | 18.33° C | 48% | 1025.4 hPa | - | - | - | - |
* Rain since midnight (hover to see other rain measurements)
** Current wind speed in m/s (hover to see current wind gust speed)